Weather History for Lawrenceville, IL

Change the Weather History Date:

Saturday, December 8, 2012

  Actual Average Record
Temperature  
Mean Temperature 47 °F 37 °F  
Max Temperature 51 °F 45 °F 59 °F (1991)
Min Temperature 42 °F 29 °F 9 °F (2006)
Degree Days  
Heating Degree Days 18 28  
Month to date heating degree days 109 214  
Since 1 July heating degree days 1156 1072  
Cooling Degree Days 0 0  
Month to date cooling degree days 1 0  
Year to date cooling degree days 1708 1387  
Moisture  
Dew Point 45 °F    
Average Humidity 87    
Maximum Humidity 100    
Minimum Humidity 74    
Precipitation  
Precipitation 0.01 in 0.12 in 1.05 in (1978)
Month to date precipitation 0.16 0.98  
Year to date precipitation 28.32 41.47  
Sea Level Pressure  
Sea Level Pressure 29.94 in    
Wind  
Wind Speed 6 mph (NNW)    
Max Wind Speed 15 mph    
Max Gust Speed 17 mph    
Visibility 4 miles    
Events Fog , Rain    
T = Trace of Precipitation, MM = Missing Value Source: NWS Daily Summary

Daily Weather History Graph

Daily Weather History Graph

Search for Another Location

Airport:

Trip Planner

Search our weather history database for the weather conditions in past years. The results will help you decide how hot, cold, wet, or windy it might be!

Date:

Astronomy

Dec. 08, 2012 Rise Set
Actual Time 6:56 AM CST 4:28 PM CST
Civil Twilight 6:26 AM CST 4:58 PM CST
Nautical Twilight 5:53 AM CST 5:31 PM CST
Astronomical Twilight 5:21 AM CST 6:03 PM CST
Moon 1:23 AM CST (12/8) 12:56 PM CST (12/8)
Length of Visible Light 10h 31m
Length of Day
9h 32m
Waning Crescent, 28% of the Moon is Illuminated
Dec 8
Waning Crescent
Dec 13
New
Dec 19
First Quarter
Dec 28
Full
Jan 4
Last Quarter

Hourly Weather History & Observations

Time (CST) Temp. Windchill Dew Point Humidity Pressure Visibility Wind Dir Wind Speed Gust Speed Precip Events Conditions
12:53 AM 48.0 °F - 46.9 °F 96% 29.86 in 0.2 mi Calm Calm - 0.00 in Fog , Rain Light Rain
1:53 AM 48.0 °F - 46.0 °F 93% 29.86 in 0.2 mi Calm Calm - 0.01 in Fog Fog
2:53 AM 48.0 °F - 46.9 °F 96% 29.86 in 0.2 mi SW 3.5 mph - 0.00 in Fog Fog
3:12 AM 48.2 °F - 48.2 °F 100% 29.86 in 0.2 mi Calm Calm - 0.00 in Fog , Rain Light Rain
3:29 AM 48.2 °F - 48.2 °F 100% 29.86 in 1.2 mi WNW 3.5 mph - 0.00 in   Overcast
3:53 AM 48.9 °F - 48.0 °F 97% 29.86 in 0.8 mi NNW 3.5 mph - 0.00 in   Overcast
4:11 AM 48.2 °F - 48.2 °F 100% 29.86 in 1.5 mi NW 3.5 mph - N/A   Overcast
4:31 AM 48.2 °F - 48.2 °F 100% 29.86 in 2.0 mi Calm Calm - N/A   Overcast
4:49 AM 48.2 °F - 48.2 °F 100% 29.87 in 2.5 mi WNW 3.5 mph - N/A   Overcast
4:53 AM 50.0 °F - 48.0 °F 93% 29.87 in 2.5 mi Calm Calm - N/A   Overcast
5:53 AM 50.0 °F - 48.0 °F 93% 29.88 in 2.0 mi Calm Calm - N/A   Overcast
6:01 AM 48.2 °F - 48.2 °F 100% 29.88 in 1.5 mi Calm Calm - N/A   Overcast
6:53 AM 50.0 °F - 48.0 °F 93% 29.91 in 1.5 mi WNW 3.5 mph - 0.00 in   Overcast
7:06 AM 50.0 °F - 48.2 °F 94% 29.90 in 1.2 mi NW 5.8 mph - N/A   Overcast
7:15 AM 50.0 °F - 48.2 °F 94% 29.91 in 1.2 mi WNW 4.6 mph - N/A   Overcast
7:42 AM 50.0 °F - 48.2 °F 94% 29.92 in 2.5 mi WNW 6.9 mph - N/A   Overcast
7:53 AM 50.0 °F - 48.9 °F 96% 29.93 in 2.5 mi NW 8.1 mph - N/A   Overcast
8:09 AM 50.0 °F - 48.2 °F 94% 29.93 in 4.0 mi NW 10.4 mph - N/A   Overcast
8:23 AM 50.0 °F - 46.4 °F 87% 29.93 in 6.0 mi NW 6.9 mph - N/A   Overcast
8:45 AM 50.0 °F - 46.4 °F 87% 29.93 in 8.0 mi NW 6.9 mph - N/A   Overcast
8:53 AM 51.1 °F - 46.9 °F 86% 29.94 in 8.0 mi NW 8.1 mph - N/A   Overcast
9:02 AM 51.8 °F - 46.4 °F 82% 29.94 in 8.0 mi NW 10.4 mph - N/A   Overcast
9:10 AM 50.0 °F - 46.4 °F 87% 29.94 in 7.0 mi NW 12.7 mph - N/A   Overcast
9:53 AM 50.0 °F - 46.0 °F 86% 29.96 in 6.0 mi NW 13.8 mph - N/A   Overcast
10:10 AM 50.0 °F - 46.4 °F 87% 29.96 in 7.0 mi NNW 11.5 mph - N/A   Overcast
10:53 AM 48.9 °F - 45.0 °F 86% 29.97 in 4.0 mi NNW 10.4 mph - N/A   Overcast
11:53 AM 48.0 °F - 44.1 °F 86% 29.98 in 5.0 mi North 8.1 mph - N/A   Overcast
12:16 PM 50.0 °F - 44.6 °F 82% 29.97 in 7.0 mi North 9.2 mph - N/A   Overcast
12:53 PM 50.0 °F - 44.1 °F 80% 29.97 in 7.0 mi NNW 6.9 mph - N/A   Overcast
1:53 PM 50.0 °F - 42.1 °F 74% 29.97 in 8.0 mi NNE 10.4 mph - N/A   Overcast
2:53 PM 48.9 °F - 42.1 °F 77% 29.97 in 8.0 mi NNE 10.4 mph - N/A   Overcast
3:53 PM 48.0 °F - 42.1 °F 80% 29.99 in 6.0 mi NE 9.2 mph - N/A   Haze
4:32 PM 46.4 °F 41.9 °F 41.0 °F 81% 30.00 in 5.0 mi NNE 9.2 mph - N/A   Haze
4:53 PM 46.0 °F 40.6 °F 41.0 °F 83% 30.01 in 6.0 mi NNE 11.5 mph - N/A   Haze
5:53 PM 46.0 °F 41.9 °F 39.9 °F 79% 30.02 in 6.0 mi North 8.1 mph - N/A   Haze
6:53 PM 45.0 °F 40.6 °F 39.9 °F 82% 30.02 in 6.0 mi North 8.1 mph - N/A   Haze
7:21 PM 44.6 °F 40.7 °F 39.2 °F 81% 30.01 in 6.0 mi North 6.9 mph - N/A   Haze
7:53 PM 45.0 °F 41.8 °F 39.9 °F 82% 30.01 in 6.0 mi NNE 5.8 mph - N/A   Haze
8:53 PM 43.0 °F 40.3 °F 39.0 °F 86% 30.01 in 5.0 mi NE 4.6 mph - N/A   Mostly Cloudy
9:46 PM 44.6 °F 42.2 °F 41.0 °F 87% 30.00 in 4.0 mi ENE 4.6 mph - N/A   Overcast
9:53 PM 44.1 °F 41.5 °F 41.0 °F 89% 30.01 in 5.0 mi East 4.6 mph - N/A   Overcast
10:53 PM 45.0 °F 41.8 °F 41.0 °F 86% 30.01 in 5.0 mi NE 5.8 mph - N/A   Overcast
11:53 PM 46.0 °F 42.5 °F 42.1 °F 86% 29.99 in 5.0 mi NE 6.9 mph - N/A   Overcast